Trenton, NJ

1:30 PM EST on December 08, 2019 (GMT -0500)
Trenton Mercer

Weather History for KTTN - October, 2019

Change the Weather History Date:

Sunday, October 27, 2019

  Actual Average Record
Temperature  
Mean Temperature 63 °F 51 °F  
Max Temperature 73 °F 62 °F 83 °F (1963)
Min Temperature 53 °F 41 °F 27 °F (1936)
Degree Days  
Heating Degree Days 2 14  
Month to date heating degree days 212 274  
Since 1 July heating degree days 230 339  
Cooling Degree Days 0 0  
Month to date cooling degree days 26 7  
Year to date cooling degree days 1163 962  
Growing Degree Days 13 (Base 50)    
Moisture  
Dew Point 59 °F    
Average Humidity 88    
Maximum Humidity 100    
Minimum Humidity 61    
Precipitation  
Precipitation 1.13 in 0.13 in 1.85 in (2003)
Month to date precipitation 4.34 3.69  
Year to date precipitation 43.00 38.94  
Sea Level Pressure  
Sea Level Pressure 29.86 in    
Wind  
Wind Speed 10 mph ()    
Max Wind Speed 22 mph    
Max Gust Speed 31 mph    
Visibility 6.6 miles    
Events Rain    
T = Trace of Precipitation, MM = Missing Value Source: Averaged Metar Reports

Daily Weather History Graph

Daily Weather History Graph

Search for Another Location

Airport or City:

Astronomy

Oct. 27, 2019 Rise Set
Actual Time 7:22 AM EDT 6:02 PM EDT
Civil Twilight 6:54 AM EDT 6:30 PM EDT
Nautical Twilight 6:22 AM EDT 7:02 PM EDT
Astronomical Twilight 5:51 AM EDT 7:34 PM EDT
Moon 6:28 AM EDT (10/27) 6:10 PM EDT (10/27)
Length of Visible Light 11h 35m
Length of Day
10h 39m
Waning Crescent, 0% of the Moon is Illuminated
Oct 27
Waning Crescent
Oct 27
New
Nov 4
First Quarter
Nov 12
Full
Nov 19
Last Quarter

Hourly Weather History & Observations

Time (EDT) Temp. Dew Point Humidity Pressure Visibility Wind Dir Wind Speed Gust Speed Precip Events Conditions
12:53 AM 53.1 °F 48.9 °F 86% 30.17 in 10.0 mi East 8.1 mph - N/A   Scattered Clouds
1:53 AM 54.0 °F 48.9 °F 83% 30.14 in 10.0 mi East 9.2 mph - N/A   Partly Cloudy
2:53 AM 54.0 °F 50.0 °F 86% 30.12 in 10.0 mi East 6.9 mph - 0.00 in Rain Light Rain
3:53 AM 54.0 °F 51.1 °F 90% 30.07 in 10.0 mi ENE 6.9 mph - 0.00 in   Overcast
4:53 AM 55.0 °F 52.0 °F 89% 30.06 in 10.0 mi East 6.9 mph - 0.00 in   Overcast
5:06 AM 55.0 °F 52.0 °F 89% 30.06 in 10.0 mi ENE 6.9 mph - N/A   Mostly Cloudy
5:53 AM 55.9 °F 53.1 °F 90% 30.02 in 7.0 mi East 8.1 mph - 0.01 in Rain Light Rain
6:02 AM 57.0 °F 54.0 °F 89% 30.03 in 9.0 mi East 8.1 mph - 0.00 in Rain Light Rain
6:34 AM 57.0 °F 55.0 °F 93% 30.00 in 5.0 mi ESE 10.4 mph - 0.05 in Rain Rain
6:53 AM 57.9 °F 55.9 °F 93% 29.97 in 6.0 mi East 9.2 mph - 0.08 in Rain Light Rain
7:12 AM 57.9 °F 55.9 °F 93% 29.97 in 4.0 mi ESE 13.8 mph - 0.04 in Rain Rain
7:38 AM 57.9 °F 57.0 °F 97% 29.95 in 6.0 mi ESE 15.0 mph - 0.08 in Rain Rain
7:53 AM 57.9 °F 57.0 °F 97% 29.91 in 5.0 mi ESE 18.4 mph 24.2 mph 0.11 in Rain Heavy Rain
8:53 AM 60.1 °F 59.0 °F 96% 29.89 in 6.0 mi SE 16.1 mph 31.1 mph 0.06 in Rain Light Rain
9:41 AM 61.0 °F 60.1 °F 97% 29.88 in 2.5 mi SE 16.1 mph - 0.02 in Rain Light Rain
9:53 AM 62.1 °F 60.1 °F 93% 29.86 in 2.5 mi SE 17.3 mph 25.3 mph 0.05 in Rain Heavy Rain
10:05 AM 62.1 °F 60.1 °F 93% 29.86 in 1.5 mi SE 17.3 mph 28.8 mph 0.07 in Rain Heavy Rain
10:20 AM 62.1 °F 61.0 °F 96% 29.84 in 2.5 mi SE 16.1 mph 23.0 mph 0.12 in Rain Rain
10:35 AM 62.1 °F 61.0 °F 96% 29.83 in 1.2 mi ESE 15.0 mph - 0.20 in Rain Heavy Rain
10:42 AM 62.1 °F 61.0 °F 96% 29.82 in 3.0 mi SE 12.7 mph - 0.21 in Rain Light Rain
10:50 AM 62.6 °F 62.6 °F 100% 29.81 in 1.8 mi SE 15.0 mph 23.0 mph 0.25 in Rain Heavy Rain
10:53 AM 63.0 °F 62.1 °F 97% 29.79 in 1.5 mi SE 16.1 mph 24.2 mph 0.25 in Rain Heavy Rain
11:03 AM 63.0 °F 62.1 °F 97% 29.80 in 2.5 mi SE 17.3 mph - 0.02 in Rain Heavy Rain
11:13 AM 63.0 °F 63.0 °F 100% 29.79 in 1.5 mi SE 15.0 mph 25.3 mph 0.05 in Rain Rain
11:53 AM 64.9 °F 64.0 °F 97% 29.75 in 1.0 mi SSE 11.5 mph 23.0 mph 0.30 in Rain Rain
12:34 PM 66.9 °F 66.0 °F 97% 29.75 in 3.0 mi Variable 6.9 mph - 0.17 in Rain Heavy Rain
12:53 PM 68.0 °F 66.9 °F 96% 29.71 in 4.0 mi South 13.8 mph 21.9 mph 0.19 in Rain Light Rain
1:00 PM 68.0 °F 66.9 °F 96% 29.72 in 6.0 mi South 11.5 mph - 0.00 in Rain Light Rain
1:11 PM 68.0 °F 66.9 °F 96% 29.71 in 10.0 mi South 11.5 mph - 0.01 in Rain Light Rain
1:36 PM 68.0 °F 66.9 °F 96% 29.71 in 2.5 mi WNW 9.2 mph - 0.08 in Rain Light Rain
1:43 PM 68.0 °F 66.0 °F 93% 29.71 in 5.0 mi WNW 8.1 mph - 0.08 in Rain Light Rain
1:53 PM 66.9 °F 64.9 °F 93% 29.70 in 10.0 mi West 6.9 mph - 0.08 in   Overcast
2:06 PM 66.9 °F 66.0 °F 97% 29.71 in 10.0 mi West 9.2 mph - N/A   Overcast
2:14 PM 68.0 °F 66.0 °F 93% 29.70 in 10.0 mi West 8.1 mph - N/A   Overcast
2:53 PM 70.0 °F 66.0 °F 87% 29.67 in 10.0 mi West 5.8 mph - N/A   Mostly Cloudy
3:53 PM 72.0 °F 64.0 °F 76% 29.69 in 10.0 mi WNW 12.7 mph 17.3 mph N/A   Clear
4:53 PM 72.0 °F 62.1 °F 71% 29.71 in 10.0 mi WNW 6.9 mph - N/A   Mostly Cloudy
5:53 PM 70.0 °F 60.1 °F 71% 29.74 in 10.0 mi Calm Calm - N/A   Mostly Cloudy
6:53 PM 69.1 °F 60.1 °F 73% 29.77 in 10.0 mi WSW 5.8 mph - N/A   Clear
7:53 PM 66.9 °F 53.1 °F 61% 29.81 in 10.0 mi WNW 6.9 mph - N/A   Clear
8:53 PM 64.9 °F 51.1 °F 61% 29.84 in 10.0 mi WNW 10.4 mph 20.7 mph N/A   Clear
9:53 PM 63.0 °F 50.0 °F 63% 29.87 in 10.0 mi West 8.1 mph - N/A   Clear
10:53 PM 61.0 °F 50.0 °F 67% 29.89 in 10.0 mi NW 15.0 mph - N/A   Clear
11:53 PM 59.0 °F 48.0 °F 67% 29.91 in 10.0 mi NW 12.7 mph 19.6 mph N/A   Clear